PDT,Max TemperatureF,Mean TemperatureF,Min TemperatureF,Max Dew PointF,MeanDew PointF,Min DewpointF,Max Humidity, Mean Humidity, Min Humidity, Max Sea Level PressureIn, Mean Sea Level PressureIn, Min Sea Level PressureIn, Max VisibilityMiles, Mean VisibilityMiles, Min VisibilityMiles, Max Wind SpeedMPH, Mean Wind SpeedMPH, Max Gust SpeedMPH,PrecipitationIn, CloudCover, Events, WindDirDegrees
2013-4-1,44,39,35,39,37,34,100,92,80,30.17,30.12,30.04,10,8,1,9,3,,0.13,7,Rain,184
2013-4-2,54,46,39,43,37,30,86,69,54,30.18,30.12,30.07,10,10,10,9,5,,0.00,2,,283
2013-4-3,60,52,45,44,39,34,83,62,45,30.11,30.05,29.98,10,10,10,10,4,,0.00,0,,158
2013-4-4,50,42,35,45,42,35,100,96,77,30.14,30.08,29.91,10,3,0,16,8,23,0.97,7,Fog-Rain,183
2013-4-5,48,42,37,41,39,34,100,92,58,30.18,30.13,30.07,10,4,0,14,7,20,0.00,7,Fog,175
2013-4-6,48,42,37,41,39,34,100,89,73,30.20,30.15,30.09,10,8,1,9,5,,0.02,8,Rain,176
2013-4-7,48,40,33,41,38,33,100,93,66,30.17,30.00,29.69,10,4,0,22,10,33,0.28,8,Fog-Rain-Snow,180
2013-4-8,44,36,30,32,27,19,100,78,38,30.01,29.79,29.64,10,6,0,16,7,32,0.21,3,Fog-Snow,355
2013-4-9,54,44,33,20,16,6,54,35,16,30.14,30.05,29.96,10,10,10,16,10,29,0.00,0,,38
2013-4-10,66,57,48,41,31,19,66,39,27,30.17,30.08,29.94,10,10,9,15,10,30,0.00,1,,299
2013-4-11,60,52,46,45,38,25,90,61,38,30.12,29.91,29.81,10,10,10,10,5,16,0.00,3,,232
2013-4-12,63,54,46,41,27,23,49,37,27,29.86,29.83,29.79,10,10,10,12,6,21,0.00,0,,119
2013-4-13,57,52,46,37,28,14,47,40,26,29.84,29.80,29.76,10,10,10,12,4,17,0.00,0,,210
2013-4-14,53,46,39,36,25,15,86,47,27,29.81,29.77,29.70,10,10,10,14,5,23,0.00,4,,203
2013-4-15,39,34,30,36,28,17,100,79,44,29.85,29.78,29.70,10,10,2,13,6,26,0.01,7,,225
2013-4-16,41,34,30,27,17,7,86,54,26,30.12,30.01,29.84,10,8,0,17,9,34,0.00,3,Fog-Snow,37
2013-4-17,48,38,30,13,9,4,46,31,18,30.26,30.19,30.12,10,10,10,21,9,39,0.00,0,,32
2013-4-18,57,47,39,32,19,8,56,32,20,30.24,30.21,30.17,10,10,10,13,7,30,0.00,0,,19
2013-4-19,60,54,48,36,30,22,63,43,35,30.21,30.15,30.08,10,10,10,10,5,18,0.00,0,,298
2013-4-20,66,54,45,36,29,12,65,40,16,30.09,30.03,29.98,10,10,10,8,5,,0.00,0,,19
2013-4-21,68,60,51,38,33,26,49,38,26,30.01,29.98,29.95,10,10,10,12,4,,0.00,0,,2
2013-4-22,70,61,48,34,27,14,44,31,12,29.96,29.91,29.86,10,10,10,16,5,26,0.00,0,,33
2013-4-23,68,54,43,29,19,8,40,26,14,29.93,29.88,29.84,10,10,10,21,11,38,0.00,0,,69
2013-4-24,64,56,48,28,11,6,38,18,12,29.89,29.85,29.82,10,10,10,15,8,29,0.00,0,,73
2013-4-25,63,58,52,37,20,7,53,26,15,30.04,29.94,29.84,10,10,10,10,6,,0.00,0,,331
2013-4-26,68,60,54,42,31,24,47,32,24,30.14,30.10,30.03,10,10,8,10,4,,0.00,0,,314
2013-4-27,71,64,59,34,30,26,35,28,21,30.15,30.10,30.03,10,10,10,10,5,16,0.00,0,,353
2013-4-28,71,64,57,45,30,11,56,30,15,30.01,29.96,29.86,10,10,10,10,4,,0.00,0,,352
2013-4-29,70,63,57,44,38,34,52,41,28,29.87,29.81,29.74,10,10,10,10,5,17,0.00,0,,283
2013-4-30,69,58,50,42,27,-2,60,34,10,29.88,29.77,29.70,10,10,10,13,4,31,0.00,0,,45